Location: Strohbehn Observatory
(42.4649°N, 93.8239°W)
Time: 05:43:14
(UTC-06:00)

Daily predictions for brighter satellites

Satellite Brightness Start Highest point End
(mag) Time Altitude Azimuth Time Altitude Azimuth Time Altitude Azimuth
CZ-4C R/B 2.8 04:56:10 66° SW 04:56:10 66° SW 05:04:02 10° SSE
ATLAS CENTAUR R/B 2.6 05:03:02 39° ESE 05:03:02 39° ESE 05:05:54 10° SE
Cosmos 1766 Rocket 4.3 05:04:18 52° ENE 05:04:22 52° E 05:08:40 10° SSE
Cosmos 2181 Rocket 3.8 05:02:41 46° NNW 05:04:40 84° W 05:10:50 10° S
Cosmos 1741 Rocket 3.9 05:07:05 83° E 05:07:05 83° E 05:12:18 10° NNE
Timation 1 Rocket 4.3 05:07:42 68° NNW 05:07:42 68° NNW 05:13:17 10° NNE
CZ-2C R/B 4.1 05:04:48 10° SSE 05:08:41 61° SSE 05:08:41 61° SSE
COSMO-SKYMED 1 3.0 05:10:36 10° SSE 05:14:51 59° ENE 05:15:52 45° NNE
IRS-1C Rocket 4.4 05:13:32 10° N 05:17:35 50° NNW 05:17:35 50° NNW
Cosmos 2278 Rocket 2.0 05:17:10 48° SSW 05:18:51 86° WNW 05:24:33 10° NNE
BREEZE-M DEB (TANK) 4.0 05:19:14 37° NNE 05:19:25 37° NNE 05:26:12 10° E
Meteor 2-8 Rocket 4.4 05:15:32 10° N 05:21:43 83° E 05:27:50 10° S
Cosmos 1844 Rocket 4.1 05:27:47 22° NNW 05:27:47 22° NNW 05:30:14 10° N
USA 234 3.9 05:25:54 10° NE 05:31:42 35° NNW 05:32:58 32° NW
Cosmos 304 Rocket 4.3 05:29:09 20° N 05:32:19 57° ENE 05:37:02 10° SSE
Okean-O 2.6 05:31:06 10° NNE 05:35:33 79° ESE 05:39:59 10° S
Cosmos-2242 2.8 05:34:58 53° SSW 05:35:53 74° W 05:40:11 10° N
Meteor 2-19 Rocket 4.3 05:35:15 10° S 05:41:18 88° W 05:47:24 10° N
Tiangong 2 1.5 05:41:52 61° E 05:41:52 61° E 05:44:36 10° E
Cosmos 2151 3.8 05:38:32 10° N 05:42:46 52° E 05:46:56 10° SSE
Cosmos 1626 2.4 05:44:13 53° SSW 05:44:13 53° SSW 05:47:13 10° S
SKYMED 3 4.5 05:40:35 10° S 05:44:52 64° WSW 05:46:15 41° NW
PAYLOAD A 3.7 05:40:53 10° N 05:45:45 82° WNW 05:50:26 10° SSW
CENTAUR R/B 4.5 05:45:03 13° NNW 05:46:59 15° N 05:50:57 10° NNE
USA 229 DEB 3.6 05:45:04 14° SW 05:51:03 74° NW 05:58:01 10° NNE
MSX 4.1 05:45:21 10° NNE 05:51:06 70° ESE 05:56:48 10° S
USA 229 3.6 05:45:03 13° SW 05:51:10 75° NW 05:58:07 10° NNE
CZ-2C R/B 2.3 05:48:20 10° NNE 05:53:00 84° ESE 05:57:44 10° SSW
NOSS 3-1 (A) 4.4 05:48:18 10° S 05:53:40 45° ESE 05:59:38 10° NE
Cosmos 1408 Rocket 3.6 05:52:27 36° NW 05:53:53 51° W 05:58:09 10° S
Feng Yun 1-1 Rocket 4.1 05:48:34 10° N 05:53:56 67° WNW 05:59:15 10° SSW
Cosmos 1850 Rocket 4.5 05:54:01 36° W 05:54:44 37° WNW 05:59:40 10° N
IDEFIX/ARIANE 42P 2.5 05:50:44 10° N 05:55:59 68° WNW 06:01:12 10° SSW
Cosmos 2208 Rocket 4.3 05:53:37 29° NW 05:56:00 48° WSW 06:01:12 10° S
Cosmos 1908 3.7 05:53:40 10° S 05:57:32 62° E 06:01:26 10° NNE
SL-27 R/B 2.6 05:57:43 51° W 05:57:58 52° WSW 06:01:30 10° S
Meteor 1-16 Rocket 4.4 05:54:01 10° SSW 05:59:20 45° WNW 06:04:32 10° N
Cosmos 2082 Rocket 2.1 05:55:37 14° NNW 06:00:36 86° WSW 06:06:13 10° SSE
Cosmos 468 Rocket 3.9 05:56:54 19° NNW 06:00:40 64° WSW 06:05:50 10° S
Cosmos 2184 Rocket 4.0 05:55:19 10° SSW 06:01:30 60° W 06:07:46 10° N
SKYMED 2 3.9 05:58:53 10° SSW 06:02:58 40° W 06:04:29 30° NW
Thor Agena Rocket 4.4 05:58:39 10° SE 06:03:43 51° ENE 06:08:51 10° N
GPS 2-04 Rocket1 4.2 06:02:22 21° SW 06:03:57 27° S 06:07:34 10° SE
Gbstr 26 Del rocket 4.1 06:00:20 13° SW 06:05:41 81° SE 06:12:57 10° ENE
Cosmos 1814 Rocket 3.9 06:00:31 10° NNW 06:05:45 88° ENE 06:10:54 10° SSE
Cosmos 841 Rocket 3.9 06:01:17 10° NNW 06:06:26 63° ENE 06:11:31 10° SSE
Cosmos 1500 Rocket 3.6 06:03:18 10° N 06:07:44 83° E 06:12:06 10° S
NOAA 6 4.3 06:04:38 10° N 06:09:33 44° WNW 06:14:26 10° SW
Cosmos 1610 Rocket 4.5 06:05:31 10° SSW 06:11:49 72° W 06:18:14 10° N
Cosmos 1174 4.0 06:11:52 32° WNW 06:12:50 39° WSW 06:15:57 10° S
Cosmos 2221 3.4 06:10:24 10° S 06:14:31 50° E 06:18:42 10° NNE
Cosmos 1763 Rocket 3.3 06:09:30 10° NNW 06:14:36 80° WSW 06:19:44 10° SSE
Milstar 3 4.3 06:10:46 10° WSW 06:16:50 26° S 06:22:13 10° SE
Cosmos 1703 3.6 06:14:42 15° NNW 06:17:36 41° W 06:21:18 10° SSW
Nadezhda 3 Rocket 4.0 06:12:20 10° N 06:18:42 81° W 06:24:58 10° S
Cosmos 1743 Rocket 3.6 06:18:35 10° NNW 06:22:48 51° W 06:27:00 10° S
Shenzhou-11 Module 1.9 06:21:41 31° W 06:22:59 75° S 06:25:59 10° ESE
Cosmos 1833 Rocket 2.8 06:19:08 11° NW 06:24:26 53° WSW 06:29:53 10° S
SMAP 3.9 06:20:10 10° NNE 06:24:45 55° E 06:29:19 10° S
SL-8 R/B 3.6 06:21:32 14° WSW 06:25:38 84° NNW 06:30:28 10° ENE
Cosmos 2297 3.7 06:22:52 10° SW 06:28:31 59° WNW 06:34:11 10° NNE
Cosmos 1486 Rocket 4.1 06:23:40 10° SSW 06:29:00 90° ESE 06:34:21 10° NNE
Radarsat Rocket 4.3 06:25:59 10° N 06:32:15 48° WNW 06:37:56 10° SW
Cosmos 1484 Rocket 2.6 06:33:32 10° N 06:37:17 76° WNW 06:41:03 10° SSW
SJ-12 4.2 06:34:51 10° N 06:38:47 43° WNW 06:42:42 10° SW
Meteor 2-10 4.4 06:33:58 10° S 06:39:12 69° E 06:44:19 10° NNE
ATLAS CENTAUR R/B 3.3 06:39:20 13° W 06:40:09 13° WSW 06:42:10 10° SW
USA 102 2.7 06:36:35 10° SSE 06:40:17 53° WSW 06:41:07 27° NW
Meteor 2-1 Rocket 4.4 06:35:16 10° SSW 06:40:37 50° WNW 06:46:03 10° N
Abrixas rocket 4.3 06:39:31 12° WSW 06:40:55 15° SW 06:42:52 10° S
NOSS 3-1 (C) 3.4 06:37:50 10° SW 06:43:30 60° NW 06:49:57 10° NNE
AQUARIUS 4.2 06:41:20 10° NNE 06:45:52 90° ESE 06:50:21 10° SSW
Ariane Rocket 3.3 06:41:50 10° NNE 06:46:58 75° ESE 06:52:04 10° S
CORIOLIS 4.4 06:44:32 10° NNE 06:49:58 76° ESE 06:55:22 10° S
Cosmos 1818 3.6 06:45:31 10° SSW 06:50:56 88° WNW 06:56:25 10° NNE
COSMOS 2487 2.4 06:47:41 10° NNW 06:51:14 79° WSW 06:54:46 10° SSE
COSMO-SKYMED 1 4.4 06:49:29 10° WSW 06:51:23 13° W 06:53:06 11° WNW
Cosmos 2058 4.1 06:48:41 10° NW 06:52:02 23° W 06:55:21 10° SW
Cosmos 1300 2.7 06:51:03 10° S 06:54:52 86° W 06:58:43 10° N
YAOGAN 1 3.1 06:56:35 10° NNE 07:00:54 65° E 07:05:11 10° S
Meteor 2-16 Rocket 4.4 06:55:25 10° SSW 07:01:28 73° W 07:07:34 10° N
CSL-04 Rocket 3.6 06:56:49 10° N 07:02:10 70° WNW 07:07:25 10° SSW
Cosmos 1805 Rocket 3.5 06:58:28 10° NNW 07:02:48 75° W 07:07:09 10° S
Cosmos 540 Rocket 3.4 06:58:01 10° NNW 07:03:08 76° WSW 07:08:13 10° SSE
Cosmos 2278 Rocket 3.7 07:00:28 10° W 07:03:48 16° NW 07:07:10 10° N
CZ-4 R/B 1.3 07:01:16 10° N 07:05:21 73° WNW 07:09:19 10° SSW
